Home > Weather > Medina > Past weeks

Flag for Saudi Arabia Past Weather in Medina, Saudi Arabia — Yesterday and Last 2 Weeks

Now
91 °F

Clear.


Feels Like: 88 °F
Forecast: 79 / 112 °F
Wind: 8 mph from West

Location: Madinah

Current Time: Jul 26, 2016 at 3:52:48 AM

Latest Report: Jul 26, 2016 at 3:00 AM


Visibility: 10 mi

Pressure: 29.80 "Hg (27.85 "Hg at 606m altitude)

Humidity: 20%

Dew Point: 45 °F

Location of MedinaLocation

Past Weather in Medina — Graph

°F

Medina Temperature Yesterday

Maximum temperature yesterday: 109 °F (at 3:00 PM)
Minimum temperature yesterday: 91 °F (at 4:00 AM)
Average temperature yesterday: 98 °F

High & Low Weather Summary for the Past Weeks

 TemperatureHumidityPressure
High117 °F (Jul 22, 3:00 PM)44% (Jul 25, 4:00 AM)29.89 "Hg (Jul 25, 4:00 AM)
Low86 °F (Jul 18, 6:00 AM)1% (Jul 17, 4:00 PM)29.59 "Hg (Jul 24, 4:00 PM)
Average100 °F11%29.78 "Hg
* Reported Jul 11 3:00 AM — Jul 26 3:00 AM, Medina, Weather by CustomWeather, © 2016

Note: Actual official high and low records may vary slightly from our data, if they occured in-between our weather recording intervals... More about our weather records

Advertising

Medina Weather History for the Previous 24 Hours

Scroll right to see more
 ConditionsComfort  
Time TempWeatherWind HumidityBarometerVisibility
3:00 AM
Tue, Jul 26
91 °FClear.8 mph20%29.80 "Hg10 mi
2:00 AM93 °FClear.6 mph20%29.77 "Hg6 mi
1:00 AM93 °FClear.10 mph19%29.80 "Hg5 mi
12:00 AM95 °FClear.13 mph19%29.80 "Hg4 mi
11:00 PM
Mon, Jul 25
97 °FClear.12 mph20%29.80 "Hg4 mi
10:00 PM97 °FClear.13 mph20%29.80 "Hg4 mi
9:00 PM99 °FClear.15 mph19%29.77 "Hg4 mi
8:00 PM100 °FClear.14 mph18%29.77 "Hg4 mi
7:00 PM102 °FSunny.15 mph17%29.74 "Hg10 mi
6:00 PM104 °FSunny.15 mph17%29.71 "Hg10 mi
5:00 PM106 °FSunny.14 mph13%29.71 "Hg10 mi
4:00 PM108 °FSunny.12 mph11%29.71 "Hg10 mi
3:00 PM109 °FSunny.8 mph7%29.71 "Hg10 mi
2:00 PM104 °FSunny.12 mph17%29.74 "Hg10 mi
1:00 PM104 °FSunny.18 mph19%29.74 "Hg10 mi
12:00 PM102 °FSunny.17 mph21%29.77 "Hg10 mi
11:00 AM100 °FSunny.17 mph21%29.77 "Hg10 mi
10:00 AM99 °FSunny.14 mph29%29.77 "Hg10 mi
9:00 AM95 °FSunny.9 mph34%29.80 "Hg10 mi
8:00 AM91 °FSunny.13 mph41%29.77 "Hg10 mi
7:00 AM91 °FSunny.12 mph41%29.77 "Hg10 mi
6:00 AM91 °FSunny.12 mph41%29.74 "Hg5 mi
5:00 AM91 °FClear.13 mph44%29.74 "Hg5 mi
4:00 AM91 °FClear.12 mph44%29.74 "Hg5 mi
3:00 AM93 °FClear.13 mph39%29.71 "Hg5 mi
Weather by CustomWeather, © 2016

See weather overviewHow to use our weather pages